Date String (YYYY-MM-DD hh:mm:ss) UTC,Instrument flags,Ambient pressure (hPa),Sample flow (lpm),Bypass flow (lpm),Sample temperature (°C),Ambient temperature (°C),ASC tube jacket temperature (°C),LED temperature (°C),Box temperature (°C),Sample RH (%),Span deviation,Mass concentration (μg/m³),Mass concentration (μg/m³),Mass concentration (μg/m³)
DateTimeUTC,F1_M11,P_M11,Q1_M11,Q2_M11,T1_M11,T2_M11,T3_M11,T4_M11,T5_M11,U1_M11,ZSPAN_M11,X0_M11,X2_M11,X1_M11
2022-12-17 10:00:00,,0821.1,4.96,0.00,22.1,20.6,00.0,30.9,23.8,04.8,0003.1,0007.98,0004.51,0004.00
2022-12-17 10:01:00,,0821.1,5.03,0.00,22.0,20.5,00.0,30.9,23.8,04.8,0003.0,0007.97,0004.49,0004.00
2022-12-17 10:02:00,,0821.1,5.00,0.00,22.0,20.5,00.0,30.9,23.7,04.7,0003.1,0008.11,0004.51,0003.98
2022-12-17 10:03:00,,0821.0,4.98,0.00,22.0,20.7,00.0,30.8,23.7,04.8,0002.7,0008.20,0004.54,0003.98
2022-12-17 10:04:00,,0821.0,5.03,0.00,22.1,21.7,00.0,30.8,24.0,04.8,0001.3,0008.24,0004.53,0003.96
2022-12-17 10:05:00,,0821.0,4.95,0.00,22.2,22.4,00.0,30.8,24.2,04.7,0000.0,0008.15,0004.50,0003.92
2022-12-17 10:06:00,,0821.1,5.05,0.00,22.3,22.2,00.0,30.9,24.2,04.7,0000.0,0008.31,0004.50,0003.91
2022-12-17 10:07:00,,0821.1,4.97,0.00,22.3,21.8,00.0,30.9,24.1,04.8,0000.0,0008.52,0004.47,0003.90
2022-12-17 10:08:00,,0821.1,4.97,0.00,22.2,21.4,00.0,31.0,24.0,04.8,0000.0,0008.98,0004.45,0003.88
2022-12-17 10:09:00,,0821.1,5.03,0.00,22.2,21.1,00.0,31.0,24.0,04.8,0000.0,0009.29,0004.43,0003.88
2022-12-17 10:10:00,,0821.1,4.96,0.00,22.2,20.9,00.0,31.0,23.9,04.7,0000.0,0009.41,0004.40,0003.87
2022-12-17 10:11:00,,0821.1,5.03,0.00,22.2,20.8,00.0,31.0,23.9,04.8,0000.0,0009.43,0004.40,0003.87
2022-12-17 10:12:00,,0821.0,4.98,0.00,22.1,20.6,00.0,31.0,23.9,04.8,0000.0,0009.39,0004.40,0003.88
2022-12-17 10:13:00,,0821.1,5.00,0.00,22.1,20.5,00.0,31.0,23.8,04.7,0000.0,0009.22,0004.40,0003.88
2022-12-17 10:14:00,,0821.1,5.04,0.00,22.1,20.4,00.0,30.9,23.7,04.7,0000.0,0009.16,0004.36,0003.86
2022-12-17 10:15:00,,0821.1,4.95,0.00,22.0,20.4,00.0,30.9,23.7,04.6,0000.0,0009.06,0004.33,0003.83
2022-12-17 10:16:00,,0821.1,5.03,0.00,22.0,20.3,00.0,30.9,23.7,04.6,0000.0,0009.01,0004.29,0003.82
2022-12-17 10:17:00,,0821.1,5.01,0.00,22.0,20.3,00.0,30.9,23.7,04.5,0000.0,0009.90,0004.23,0003.77
2022-12-17 10:18:00,,0821.1,4.98,0.00,22.0,20.6,00.0,30.9,23.7,04.5,0000.0,0009.74,0004.15,0003.71
2022-12-17 10:19:00,,0821.1,5.03,0.00,22.1,21.6,00.0,30.8,24.0,04.5,0000.0,0009.08,0004.09,0003.66
2022-12-17 10:20:00,,0821.2,4.96,0.00,22.2,22.3,00.0,30.9,24.2,04.5,0000.0,0008.61,0004.04,0003.60
2022-12-17 10:21:00,,0821.2,5.02,0.00,22.2,22.0,00.0,30.9,24.1,04.5,0000.0,0008.38,0004.00,0003.55
2022-12-17 10:22:00,,0821.1,4.99,0.00,22.2,21.6,00.0,30.9,24.1,04.5,0000.0,0008.29,0003.96,0003.52
2022-12-17 10:23:00,,0821.1,4.97,0.00,22.2,21.3,00.0,31.0,24.0,04.5,0000.0,0008.55,0003.95,0003.47
2022-12-17 10:24:00,,0821.1,5.06,0.00,22.2,21.1,00.0,31.0,24.0,04.5,0000.0,0009.14,0003.92,0003.43
2022-12-17 10:25:00,,0821.1,4.96,0.00,22.2,20.9,00.0,31.0,23.9,04.5,0000.0,0009.11,0003.88,0003.41
2022-12-17 10:26:00,,0821.1,5.05,0.00,22.1,20.8,00.0,31.0,23.9,04.5,0000.0,0009.10,0003.85,0003.38
2022-12-17 10:27:00,,0821.2,4.95,0.00,22.1,20.7,00.0,31.0,23.9,04.5,0000.0,0009.13,0003.86,0003.38
2022-12-17 10:28:00,,0821.1,5.03,0.00,22.1,20.6,00.0,31.0,23.8,04.5,0000.0,0008.13,0003.85,0003.38
2022-12-17 10:29:00,,0821.1,4.97,0.00,22.1,20.5,00.0,31.0,23.8,04.5,0000.0,0007.90,0003.90,0003.40
2022-12-17 10:30:00,,0821.2,5.02,0.00,22.1,20.4,00.0,30.9,23.8,04.5,0000.0,0008.06,0003.97,0003.43
2022-12-17 10:31:00,,0821.1,5.01,0.00,22.0,20.5,00.0,30.9,23.8,04.5,0000.0,0008.14,0004.00,0003.45
2022-12-17 10:32:00,,0821.1,4.98,0.00,22.1,21.4,00.0,30.9,24.0,04.5,0000.0,0008.59,0004.02,0003.48
2022-12-17 10:33:00,,0821.1,4.98,0.00,22.2,22.3,00.0,30.9,24.2,04.8,0000.0,0009.02,0004.15,0003.59
2022-12-17 10:34:00,,0821.1,4.98,0.00,22.3,22.1,00.0,30.9,24.2,05.0,0000.3,0009.53,0004.41,0003.81
2022-12-17 10:35:00,,0821.2,5.04,0.00,22.3,21.8,00.0,31.0,24.1,05.1,0004.5,0009.47,0004.75,0004.13
2022-12-17 10:36:00,,0821.1,4.97,0.00,22.2,21.4,00.0,31.0,24.1,04.9,0004.4,0010.25,0005.04,0004.38
2022-12-17 10:37:00,,0821.2,5.05,0.00,22.2,21.2,00.0,31.0,24.0,04.8,0004.3,0011.50,0005.21,0004.56
2022-12-17 10:38:00,,0821.1,4.96,0.00,22.2,21.0,00.0,31.0,24.0,04.9,0003.8,0012.01,0005.41,0004.73
2022-12-17 10:39:00,,0821.1,5.04,0.00,22.2,20.8,00.0,31.0,23.9,05.0,0003.2,0012.56,0005.73,0005.02
2022-12-17 10:40:00,,0821.1,4.96,0.00,22.2,20.7,00.0,31.0,23.9,05.1,0002.3,0013.38,0006.23,0005.47
2022-12-17 10:41:00,,0821.2,5.05,0.00,22.1,20.6,00.0,31.0,23.9,05.1,0001.8,0014.58,0006.82,0006.06
2022-12-17 10:42:00,,0821.1,4.96,0.00,22.1,20.5,00.0,31.0,23.8,05.1,0001.6,0015.85,0007.45,0006.68
2022-12-17 10:43:00,,0821.1,5.04,0.00,22.1,20.5,00.0,31.0,23.8,04.9,0001.3,0015.84,0007.76,0006.97
2022-12-17 10:44:00,,0821.2,4.96,0.00,22.1,20.5,00.0,31.0,23.8,04.7,0001.3,0015.63,0007.78,0006.98
2022-12-17 10:45:00,,0821.2,5.03,0.00,22.1,21.0,00.0,30.9,23.9,04.5,0001.3,0014.88,0007.57,0006.81
2022-12-17 10:46:00,,0821.2,4.98,0.00,22.2,22.0,00.0,30.9,24.1,04.6,0001.5,0014.65,0007.37,0006.61
2022-12-17 10:47:00,,0821.2,4.98,0.00,22.3,22.2,00.0,30.9,24.3,04.8,0001.5,0014.41,0007.46,0006.69
2022-12-17 10:48:00,,0821.2,5.03,0.00,22.3,21.8,00.0,31.0,24.2,04.6,0001.7,0013.99,0007.44,0006.68
2022-12-17 10:49:00,,0821.1,4.97,0.00,22.3,21.5,00.0,31.0,24.1,04.5,0001.6,0013.81,0007.29,0006.58
2022-12-17 10:50:00,,0821.2,5.01,0.00,22.3,21.2,00.0,31.0,24.0,04.4,0002.2,0013.28,0007.01,0006.35
2022-12-17 10:51:00,,0821.1,5.01,0.00,22.2,21.0,00.0,31.0,24.0,04.3,0002.9,0012.61,0006.55,0005.94
2022-12-17 10:52:00,,0821.1,4.98,0.00,22.2,20.9,00.0,31.0,23.9,04.2,0003.1,0011.34,0005.97,0005.38
2022-12-17 10:53:00,,0821.2,5.01,0.00,22.2,20.7,00.0,31.0,23.9,04.2,0003.4,0010.09,0005.40,0004.82
2022-12-17 10:54:00,,0821.2,5.00,0.00,22.2,20.6,00.0,31.0,23.9,04.2,0004.1,0010.13,0005.14,0004.55
2022-12-17 10:55:00,,0821.2,5.00,0.00,22.2,20.6,00.0,31.0,23.9,04.3,0004.2,0010.12,0005.08,0004.51
2022-12-17 10:56:00,,0821.2,5.01,0.00,22.1,20.4,00.0,31.0,23.8,04.2,0003.6,0010.39,0005.07,0004.52
2022-12-17 10:57:00,,0821.2,4.98,0.00,22.1,20.4,00.0,31.0,23.8,04.0,0000.0,0010.31,0004.91,0004.41
2022-12-17 10:58:00,,0821.2,5.04,0.00,22.1,20.4,00.0,31.0,23.8,03.8,0000.0,0010.30,0004.52,0004.07
2022-12-17 10:59:00,,0821.1,4.96,0.00,22.1,20.6,00.0,30.9,23.8,03.9,0000.0,0009.49,0004.35,0003.90
